924  
ASUS44 KFWD 101915  
RWRFWD  
NORTH TEXAS HOURLY WEATHER ROUNDUP  
NATIONAL WEATHER SERVICE FORT WORTH TX  
100 PM CST FRI NOV 10 2017  
 
NOTE: "FAIR" INDICATES FEW OR NO CLOUDS BELOW 12,000 FEET WITH NO  
SIGNIFICANT WEATHER AND/OR S TO VISIBILITY
.  
 
TXZ118-119-102000-  
DALLAS/FORT WORTH METROPLEX  
 
CITY SKY/WX TMP DP RH WIND PRES REMARKS
 
DFW AIRPORT MOSUNNY 62 44 51 SE12 30.23F  
DALLAS LOVE PTSUNNY 61 44 53 SE7 30.24F  
FTW MEACHAM MOSUNNY 61 46 57 S9G17 30.24F  
DAL-EXECUTIVE CLOUDY 59 46 62 SE8 30.24F  
FTW-ALLIANCE MOSUNNY 63 45 51 SE6G20 30.23F  
FTW-NAS-JRB CLOUDY 62 44 51 SE9 30.25F  
FTW-SPINKS PTSUNNY 61 46 59 SE9 30.26F  
ARLINGTON CLOUDY 59 46 62 SE12 30.25F  
GRAND PRAIRIE MOSUNNY 61 45 55 SE8 30.26F  
ADDISON PTSUNNY 61 43 51 MISG 30.25F  
MESQUITE N/A 63 43 48 E7 30.26F  
LANCASTER MOSUNNY 60 45 57 SE6 30.26F  

 
 
TXZ091>094-102>105-117-120-121-131>134-102000-  
NORTH CENTRAL TEXAS  
 
CITY SKY/WX TMP DP RH WIND PRES REMARKS
 
SHRMAN/DENISON SUNNY 63 40 43 S12 30.25F  
GAINESVILLE MOSUNNY 61 43 51 SE10 30.25F  
BOWIE CLOUDY 55 46 70 SE9 30.23F  
BRIDGEPORT CLOUDY 56 47 72 S6 30.26F  
DECATUR CLOUDY 57 46 65 SE6 30.22F  
DENTON MOSUNNY 61 45 55 SE13 30.24F  
MCKINNEY MOSUNNY 62 44 51 SE12 30.25F  
BONHAM SUNNY 62 39 42 SE14 30.26F  
GREENVILLE SUNNY 66 36 32 S5 30.27F  
ROCKWALL SUNNY 64 42 44 SE6 30.26F HAZE  
TERRELL SUNNY 64 34 32 SE10 30.26F  
WAXAHACHIE CLOUDY 59 47 64 S9 30.26F  
CLEBURNE CLOUDY 59 48 67 S7 30.25F  
GRANBURY CLOUDY 59 49 69 S6 30.25F  

 
 
TXZ083>090-098>101-113>116-127>130-139>142-154-155-102000-  
WESTERN NORTH TEXAS  
 
CITY SKY/WX TMP DP RH WIND PRES REMARKS
 
WICHITA FALLS CLOUDY 51 45 79 S9 30.23F  
WF-KICKAPOO CLOUDY 50 46 84 S9 30.26F  
VERNON CLOUDY 51 42 71 SE10 30.23F  
ABILENE CLOUDY 53 49 86 SE9 30.20F  
ABILENE-DYESS CLOUDY 55 50 84 SE10 30.18F  
GRAHAM N/A 55 47 75 SE5 30.21F  
BRECKENRIDGE CLOUDY 58 47 65 S8 30.21F  
CISCO CLOUDY 54 48 82 SE7 30.23F  
EASTLAND CLOUDY 55 48 77 SE6 30.22F  
RANGER CLOUDY 55 48 76 SE7 30.22F  
MINERAL WELLS CLOUDY 55 47 74 SE7 30.23F  
STEPHENVILLE CLOUDY 55 47 74 S5 30.26F  
COMANCHE CLOUDY 54 52 94 SE6 30.23F  
BROWNWOOD CLOUDY 55 48 76 SE6 30.22F  
COLEMAN CLOUDY 54 49 83 SE6 30.21F  

 
 
TXZ143>147-156>162-174-175-102000-  
CENTRAL TEXAS  
 
CITY SKY/WX TMP DP RH WIND PRES REMARKS
 
WACO CLOUDY 61 47 59 VRB3 30.24F  
WACO-TSTC PTSUNNY 63 48 59 SE5 30.24F  
WACO-MCGREGOR CLOUDY 60 49 66 SE7 30.24F  
HILLSBORO CLOUDY 59 49 68 SE6 30.24F  
CORSICANA MOSUNNY 64 44 48 E9 30.25F  
MEXIA CLOUDY 62 44 52 S5 30.23F  
HEARNE MOSUNNY 62 45 53 E3 30.25F  
CAMERON CLOUDY 62 47 57 E5 30.24F  
TEMPLE CLOUDY 59 47 64 E6 30.25F  
KILLEEN CLOUDY 57 48 72 E7 30.22F  
KILLEEN-SKYLRK CLOUDY 60 48 64 E7 30.23F  
FORT HOOD CLOUDY 57 47 70 E7 30.19F  
GATESVILLE CLOUDY 57 48 72 CALM 30.26F  
HAMILTON CLOUDY 53 52 95 S7 30.25F  
LAMPASAS CLOUDY 55 50 82 SE7 30.22F  

 
 
TXZ095>097-106>112-122>126-135>138-148>153-164>167-102000-  
EAST TEXAS  
 
CITY SKY/WX TMP DP RH WIND PRES REMARKS
 
PARIS SUNNY 63 37 38 SE12 30.27F  
SULPHUR SPRNGS SUNNY 64 34 31 SE10 30.29F  
MOUNT PLEASANT SUNNY 64 34 33 SE8 30.28F  
GILMER SUNNY 62 37 40 E8 30.27F  
MINEOLA SUNNY 64 39 39 W3 30.26F  
TYLER SUNNY 64 36 35 SE10 30.25F  
LONGVIEW SUNNY 64 39 39 NE8 30.26  
MARSHALL SUNNY 64 33 31 E6 30.29F  
ATHENS SUNNY 61 34 36 CALM 30.24F  
PALESTINE SUNNY 64 40 42 SE3 30.26F  
JACKSONVILLE SUNNY 64 42 45 SE6 30.26F  
HENDERSON SUNNY 64 39 38 MISG 30.26F  
CENTER CLEAR 63 38 39 E8 30.26F  
NACOGDOCHES SUNNY 64 42 44 CALM 30.25F  
LUFKIN SUNNY 66 44 45 VRB3 30.23F  

 
 
SUPPLEMENTAL OBSERVATIONS (NWS FORT WORTH AREA)  
 
CITY SKY/WX TMP DP RH WIND PRES REMARKS
 
CADDO GRASSLND N/A 64 39 39 S7G15 N/A  
PAT MAYSE LAKE N/A 63 32 31 E6 N/A  
GREENVILLE N/A 64 36 34 SE6G14 N/A  
CEDAR HILL N/A 61 45 55 SE6 N/A  
LBJ GRASSLAND N/A 57 45 62 SE8 N/A  
POSSUM KINGDOM N/A 55 46 71 E7 N/A  
GRANBURY N/A 59 48 67 S7 N/A  
MCGREGOR N/A 61 45 55 E6 N/A  
TEMPLE N/A 61 46 59 E6 N/A  

 
 
SUPPLEMENTAL OBSERVATIONS (NWS NORMAN AREA)  
 
CITY SKY/WX TMP DP RH WIND PRES REMARKS
 
GOODLETT N/A 51 43 76 SE10 30.19F  
ODELL N/A 49 45 84 SE10 30.22F  
CROWELL N/A 49 45 83 SE6 30.21F  
KNOX CITY N/A 50 45 83 E8 30.21F  
SEYMOUR N/A 53 44 73 SE5 30.22F  
MILLERS CREEK N/A 52 48 87 S2 N/A  

 
 
SUPPLEMENTAL OBSERVATIONS (NWS SAN ANGELO AREA)  
 
CITY SKY/WX TMP DP RH WIND PRES REMARKS
 
WEINERT N/A 51 47 85 NE7 30.20F  
HASKELL N/A 51 50 97 E3 30.20F  
THROCKMORTON N/A 56 47 74 S5 30.21F  
STAMFORD N/A 55 51 85 SE9 30.20F  
CLYDE N/A 53 49 86 SE9 30.20F  
HAMBY N/A 54 48 82 SE7 N/A  
IVIE RESERVOIR N/A 54 50 87 E9 N/A  
COLORADO BEND N/A 55 48 76 SE6 N/A  

 
 
SUPPLEMENTAL OBSERVATIONS (NWS SHREVEPORT AREA)  
 
CITY SKY/WX TMP DP RH WIND PRES REMARKS
 
CLARKSVILLE N/A 64 34 32 SE8 N/A  
TEXARKANA N/A 64 37 36 E3 N/A  
LINDEN N/A 64 34 32 SE5 N/A  
CADDO LAKE N/A 66 37 34 NE5 N/A  
GILMER N/A 64 37 36 E7 N/A  
HENDERSON N/A 66 37 34 E6 N/A  
LUFKIN N/A 66 43 42 MISG N/A  
S SABINE NF N/A 66 41 39 NE5 N/A  

 
 
SUPPLEMENTAL OBSERVATIONS ARE A COLLECTION OF AUTOMATED INSTRUMENTS  
THAT ARE MAINTAINED BY A VARIETY OF FEDERAL AND STATE AGENCIES.  
CERTAIN ELEMENTS...SUCH AS HUMIDITY VALUES AND SUSTAINED WIND  
SPEEDS...MAY BE APPROXIMATED.  
 
 
 
CLICK HERE TO GO TO PREVIOUS BULLETINS.

The Nexlab TX Page Main Text Page

The Nexlab TX Page Main Text Page